DW9987 Weather Reports


Display with metric or nautical units.
time (UTC)temp
F
wind
direction
speed
MPH
gust
MPH
rain 1hr
in
rain 24hr
in
rain mn
in
humidity
%
barometer
mb
20260506211522 57 333 5.0 15.0 0.00 0.00 0.00 36 1014.2
20260506210022 58 178 4.0 12.0 0.00 0.00 0.00 37 1014.1
20260506204512 56 5 2.0 10.0 0.00 0.00 0.00 38 1014.2
20260506203011 56 58 3.0 16.0 0.00 0.00 0.00 38 1014.5
20260506201511 57 343 5.0 13.0 0.00 0.00 0.00 38 1014.4
20260506200025 56 339 3.0 14.0 0.00 0.00 0.00 37 1014.4
20260506194509 56 28 6.0 16.0 0.00 0.00 0.00 37 1014.6
20260506193009 56 360 2.0 11.0 0.00 0.00 0.00 37 1014.7
20260506191508 57 128 3.0 13.0 0.00 0.00 0.00 37 1014.7
20260506190008 57 360 1.0 8.0 0.00 0.00 0.00 37 1014.6
20260506184506 57 118 2.0 9.0 0.00 0.00 0.00 39 1014.6
20260506183006 56 5 1.0 8.0 0.00 0.00 0.00 44 1014.7
20260506181504 55 229 1.0 7.0 0.00 0.00 0.00 42 1014.7
20260506180013 55 317 3.0 12.0 0.00 0.00 0.00 40 1014.8
20260506174503 56 269 1.0 10.0 0.00 0.00 0.00 40 1014.7
20260506173003 55 65 2.0 12.0 0.00 0.00 0.00 42 1015.0
20260506171502 56 230 1.0 12.0 0.00 0.00 0.00 41 1014.9
20260506170110 56 66 2.0 11.0 0.00 0.00 0.00 44 1015.0
20260506164623 55 328 2.0 10.0 0.00 0.01 0.00 42 1015.0
20260506163106 56 33 3.0 12.0 0.00 0.01 0.00 41 1014.9
20260506161555 54 91 2.0 9.0 0.00 0.01 0.00 44 1014.9
20260506160106 53 78 1.0 5.0 0.00 0.01 0.00 46 1015.0
20260506154554 53 349 3.0 7.0 0.00 0.01 0.00 47 1014.9
20260506153050 53 146 0.0 6.0 0.00 0.01 0.00 48 1015.0
20260506151550 53 16 1.0 4.0 0.00 0.01 0.00 49 1014.9
20260506150048 53 348 0.0 4.0 0.00 0.01 0.00 48 1015.0
20260506144546 52 239 1.0 4.0 0.00 0.01 0.00 51 1015.0
20260506143045 52 207 0.0 2.0 0.00 0.01 0.00 53 1015.0
20260506141602 51 27 0.0 1.0 0.00 0.01 0.00 64 1015.0
20260506140041 50 343 0.0 2.0 0.00 0.01 0.00 63 1015.0
20260506134538 49 355 0.0 2.0 0.00 0.02 0.00 63 1014.9
20260506133036 47 360 0.0 2.0 0.00 0.02 0.00 68 1014.6
20260506131537 46 5 0.0 0.0 0.00 0.02 0.00 72 1014.2
20260506130032 45 5 0.0 0.0 0.00 0.02 0.00 77 1014.2
20260506124537 43 5 0.0 0.0 0.00 0.06 0.00 80 1014.1
20260506123038 41 5 0.0 0.0 0.00 0.06 0.00 82 1013.9
20260506121527 40 5 0.0 0.0 0.00 0.06 0.00 84 1013.6
20260506120036 40 5 0.0 0.0 0.00 0.06 0.00 84 1013.5
20260506114526 39 5 0.0 0.0 0.00 0.06 0.00 86 1013.3
20260506113023 38 5 0.0 0.0 0.00 0.06 0.00 84 1013.3
20260506111521 38 5 0.0 0.0 0.00 0.06 0.00 84 1013.1
20260506110025 38 5 0.0 0.0 0.00 0.06 0.00 83 1013.0
20260506104518 38 5 0.0 0.0 0.00 0.06 0.00 84 1012.9
20260506103026 38 5 0.0 0.0 0.00 0.06 0.00 83 1012.7
20260506101513 39 5 0.0 0.0 0.00 0.06 0.00 81 1012.3
20260506100012 39 5 0.0 0.0 0.00 0.06 0.00 79 1012.1
20260506094525 40 5 0.0 0.0 0.00 0.06 0.00 79 1012.1
20260506093007 40 5 0.0 0.0 0.00 0.06 0.00 79 1012.2
20260506091506 41 5 0.0 1.0 0.00 0.06 0.00 79 1012.1
20260506090004 41 5 0.0 0.0 0.00 0.06 0.00 78 1011.9
20260506084504 41 5 0.0 0.0 0.00 0.06 0.00 76 1012.1
20260506083002 41 5 0.0 0.0 0.00 0.06 0.00 73 1012.0
20260506081602 41 5 0.0 0.0 0.00 0.06 0.00 71 1011.8
20260506073058 43 5 0.0 0.0 0.00 0.06 0.00 66 1011.6
20260506071552 44 5 0.0 0.0 0.00 0.06 0.00 65 1011.5
20260506070106 45 5 0.0 3.0 0.00 0.06 0.00 63 1011.4
20260506061541 46 349 0.0 0.0 0.00 0.06 0.00 67 1011.3
20260506044525 51 355 1.0 6.0 0.00 0.06 0.06 53 1010.8
20260506043023 51 5 2.0 5.0 0.00 0.06 0.06 54 1010.7
20260506041524 50 5 1.0 4.0 0.00 0.06 0.06 57 1011.0
20260506040021 50 360 0.0 0.0 0.00 0.06 0.06 57 1010.9
20260506034521 50 360 0.0 0.0 0.00 0.06 0.06 60 1011.0
20260506033019 50 360 0.0 0.0 0.00 0.06 0.06 58 1010.7
20260506031521 51 360 0.0 0.0 0.00 0.06 0.06 58 1010.7
20260506030019 52 360 0.0 0.0 0.00 0.06 0.06 57 1010.3
20260506024515 52 360 0.0 2.0 0.00 0.06 0.06 52 1010.1
20260506023015 52 360 0.0 2.0 0.00 0.06 0.06 52 1010.2
20260506021514 52 360 0.0 0.0 0.00 0.06 0.06 50 1010.2
20260506020013 53 360 0.0 1.0 0.00 0.06 0.06 49 1009.9
20260506014514 53 360 0.0 2.0 0.00 0.06 0.06 48 1009.9
20260506013013 53 355 0.0 3.0 0.00 0.06 0.06 47 1009.4
20260506011512 53 5 0.0 3.0 0.00 0.06 0.06 46 1009.3
20260506010012 54 5 1.0 4.0 0.00 0.07 0.06 44 1009.1
20260506004511 54 345 0.0 3.0 0.00 0.07 0.06 44 1009.1
20260506003010 54 5 2.0 5.0 0.00 0.07 0.06 42 1008.8
20260506001510 54 355 1.0 6.0 0.00 0.07 0.06 42 1008.7
20260506000009 54 9 0.0 4.0 0.00 0.17 0.06 42 1008.9
20260505234514 54 355 2.0 8.0 0.00 0.17 0.06 39 1008.9
20260505233011 55 11 3.0 8.0 0.00 0.17 0.06 39 1008.8
20260505231511 55 345 4.0 9.0 0.00 0.17 0.06 38 1008.9
20260505230007 55 342 4.0 7.0 0.00 0.17 0.06 38 1008.8
20260505224507 55 333 0.0 6.0 0.00 0.17 0.06 40 1009.1
20260505223010 56 118 3.0 9.0 0.00 0.17 0.06 38 1009.1
20260505221505 56 54 1.0 7.0 0.00 0.17 0.06 36 1009.1
20260505220008 56 232 2.0 8.0 0.00 0.17 0.06 36 1009.1
20260505214507 56 117 1.0 8.0 0.00 0.17 0.06 36 1009.3
20260505213004 56 323 1.0 7.0 0.00 0.17 0.06 36 1009.3